Change the Weather History Date:

Saturday, November 24, 2012

  Actual Average Record
Temperature  
Mean Temperature 64 °F -  
Max Temperature 80 °F 65 °F 80 °F (2012)
Min Temperature 48 °F 45 °F 39 °F (1999)
Degree Days  
Heating Degree Days 1    
Growing Degree Days 14 (Base 50)    
Moisture  
Dew Point 48 °F    
Average Humidity 70    
Maximum Humidity 93    
Minimum Humidity 22    
Precipitation  
Precipitation 0.01 in - - ()
Sea Level Pressure  
Sea Level Pressure 29.99 in    
Wind  
Wind Speed 4 mph (NW)    
Max Wind Speed 15 mph    
Max Gust Speed -    
Visibility 7 miles    
Events Fog    
Averages and records for this station are not official NWS values.
T = Trace of Precipitation, MM = Missing Value Source: NWS Daily Summary

Daily Weather History Graph

Daily Weather History Graph

Search for Another Location

Airport or City:

Trip Planner

Search our weather history database for the weather conditions in past years. The results will help you decide how hot, cold, wet, or windy it might be!

Date:

Astronomy

Nov. 24, 2012 Rise Set
Actual Time 6:27 AM PST 4:43 PM PST
Civil Twilight 6:00 AM PST 5:09 PM PST
Nautical Twilight 5:30 AM PST 5:39 PM PST
Astronomical Twilight 5:01 AM PST 6:09 PM PST
Moon 2:22 PM PST (11/24) 2:57 AM PST (11/24)
Length of Visible Light 11h 08m
Length of Day
10h 15m
Waxing Gibbous, 88% of the Moon is Illuminated
Nov 24
Waxing Gibbous
Nov 28
Full
Dec 6
Last Quarter
Dec 13
New
Dec 19
First Quarter

Hourly Weather History & Observations

Time (PST) Temp. Dew Point Humidity Pressure Visibility Wind Dir Wind Speed Gust Speed Precip Events Conditions
12:55 AM - - N/A% 30.09 in 2.0 mi NNW 4.6 mph - N/A   Mostly Cloudy
1:55 AM 50.0 °F 46.9 °F 89% 30.05 in 6.0 mi NNW 5.8 mph - N/A   Partly Cloudy
2:55 AM 50.0 °F 46.0 °F 86% 30.04 in 10.0 mi NNW 4.6 mph - N/A   Partly Cloudy
3:55 AM 50.0 °F 46.0 °F 86% 30.04 in 10.0 mi North 3.5 mph - N/A   Partly Cloudy
4:55 AM 50.0 °F 46.0 °F 86% 30.04 in 10.0 mi NNW 3.5 mph - N/A   Clear
5:55 AM 48.9 °F 45.0 °F 86% 30.04 in 10.0 mi NNW 4.6 mph - N/A   Partly Cloudy
6:55 AM 51.1 °F 46.9 °F 86% 30.05 in 10.0 mi North 4.6 mph - N/A   Partly Cloudy
7:55 AM 57.0 °F 48.9 °F 74% 30.05 in 10.0 mi Calm Calm - N/A   Clear
8:55 AM 66.9 °F 48.9 °F 52% 30.05 in 10.0 mi Calm Calm - N/A   Clear
9:55 AM 73.9 °F 46.0 °F 37% 30.02 in 10.0 mi NW 4.6 mph - N/A   Clear
10:55 AM 77.0 °F 41.0 °F 28% 30.02 in 10.0 mi NW 5.8 mph - N/A   Clear
11:55 AM 79.0 °F 37.0 °F 22% 29.98 in 10.0 mi NW 8.1 mph - N/A   Clear
12:55 PM 80.1 °F 39.9 °F 24% 29.95 in 10.0 mi NW 8.1 mph - N/A   Clear
1:55 PM 79.0 °F 41.0 °F 26% 29.92 in 10.0 mi NW 15.0 mph - N/A   Clear
2:55 PM 71.1 °F 51.1 °F 49% 29.93 in 10.0 mi WNW 6.9 mph - N/A   Clear
3:55 PM 66.0 °F 55.0 °F 68% 29.93 in 10.0 mi WNW 4.6 mph - N/A   Clear
4:55 PM 60.1 °F 53.1 °F 78% 29.94 in 6.0 mi WSW 4.6 mph - N/A   Haze
5:55 PM 57.9 °F 54.0 °F 87% 29.95 in 2.0 mi SSW 4.6 mph - N/A   Mist
6:55 PM 53.1 °F 51.1 °F 93% 29.95 in 1.0 mi Calm Calm - N/A   Mist
7:55 PM 53.1 °F 50.0 °F 89% 29.96 in 1.0 mi Calm Calm - N/A   Mist
8:55 PM 57.9 °F 55.0 °F 90% 29.96 in 1.0 mi SSE 3.5 mph - N/A   Overcast
9:55 PM 57.0 °F 55.0 °F 93% 29.96 in 1.0 mi SSE 3.5 mph - N/A   Overcast
10:55 PM 57.0 °F 55.0 °F 93% 29.95 in 1.0 mi Calm Calm - N/A   Mist
11:55 PM 57.0 °F 55.0 °F 93% 29.94 in 0.2 mi Calm Calm - N/A Fog Fog